FENGYUN 1C DEB, 30661

Orbit data source: Space-Track

FENGYUN 1C DEB, 30661 is space debris in SSO originally from a launch on Mon, 10 May 1999 UTC launched from the Taiyaun Space Center, China (TSC). Fengyun 1C debris stems from the Chinese weather satellite Fengyun-1C, which was intentionally destroyed by a Chinese anti-satellite missile in 2007. This event dramatically increased the amount of space debris, with thousands of trackable fragments posing hazards to satellites and human spaceflight. The Fengyun 1C debris cloud has become a focal point in discussions about space sustainability and the need for international regulations to prevent the creation of new debris.

Loading next visibility...
Identifier
30661, 1999-025APT
Orbit
SSO
Country
Flag of CNCN / PRC
Related business
Manufacturer
Unknown
Mission
Spacecraft
Bus & Motor
Unknown
Mass
Unknown
Launch date (UTC)
1999-05-10 (26 years ago)
Launch vehicle
Unknown
Launch site
Taiyaun Space Center, China (TSC)
Object type
Payload
Rocket body
Debris
Shape & HBR
Unknown shape, 0.1 m
Radar Cross Section
Small (<0.1 m²)

Expand to show TLE details & history
Last TLE update: 1 day ago

TLE from 1 day ago
0 FENGYUN 1C DEB
1 30661U 99025APT 25285.92767073  .00000554  00000-0  25119-3 0  9999
2 30661  99.4876  97.1069 0143896 216.5378 142.5913 14.21074661970380
Epoch: 2025-10-12T22:15Z
TLE epoch observation values (Epoch: 2025-10-12T22:15:50.751Z)
Latitude
-0.00002°
Longitude
101.40766°
Altitude
907.462 km
Speed
7.356 km/s
True Right ascension
06h 28m 25s
True Declination
0° 00' 00"
Sunlit
Object was in daylight at epoch
Visualization orbit readout
Latitude
Unknown
Longitude
Unknown
Altitude
Unknown
Speed
Unknown
Apparent Right ascension
Unknown
Apparent Declination
Unknown
Sunlit
N/A
Visualization observer readout
Local Sidereal Time
21:07:18
Azimuth
Unknown
Elevation
Unknown
Doppler factor
Unknown
Orbital elements
Apogee altitude
922.479 km
Perigee altitude
715.353 km
Semi-major axis
7,197.053 km
Eccentricity
0.01439
Inclination
99.4876°
RAAN
97.1069°
Arg. of periapsis
216.5378°
True anomaly
143.57885°
Mean anomaly
142.5913°
Eccentric anomaly
143.08648°
Mean motion
3.55477 °/min
Orbital period
101.27 mins
BSTAR
0.00025119
Loading maneuver chart data...
Computing Atmospheric mass density...

Documentation

Showing up to 5 results
|